When you browse on this site, cookies collect data to enhance your experience and personalize the content and advertising you see.
Visit our Privacy Policy to learn more. By continuing to use the site, you agree to this use of cookies and data.
  • In Österreich
  • Länderverzeichnis
  • Für 7 Tage
  • Wassertemperatur
  • Satellitenkarten
  • Wetterkarte
  • News
  • Widgets
  • user-avatar
    Anmelden

    Stündliche Wetter Rotorua

    Heute, 21 April, Sonntag

    Zeit Temperatur Niederschläge Wind Luftdruck Luftfeuchtigkeit
    00:00 +8°C° 0 mm 0 m/S 733 mmHg 98%
    01:00 +7°C° 0 mm 0 m/S 733 mmHg 98%
    02:00 +7°C° 0 mm 0 m/S 732 mmHg 98%
    03:00 +7°C° 0 mm 0 m/S 732 mmHg 97%
    04:00 +7°C° 0 mm 0 m/S 732 mmHg 97%
    05:00 +7°C° 0 mm 0 m/S 732 mmHg 97%
    06:00 +6°C° 0 mm 0 m/S 732 mmHg 97%
    07:00 +8°C° 0 mm 0 m/S 732 mmHg 90%
    08:00 +10°C° 0 mm 0 m/S 732 mmHg 83%
    09:00 +12°C° 0 mm 0 m/S 732 mmHg 76%
    10:00 +15°C° 0 mm 1 m/S 732 mmHg 68%
    11:00 +18°C° 0 mm 1 m/S 732 mmHg 59%
    12:00 +19°C° 0 mm 2 m/S 732 mmHg 51%
    13:00 +18°C° 0 mm 2 m/S 731 mmHg 54%
    14:00 +18°C° 0 mm 2 m/S 731 mmHg 57%
    15:00 +18°C° 0 mm 2 m/S 730 mmHg 60%
    16:00 +16°C° 0.2 mm 2 m/S 730 mmHg 72%
    17:00 +15°C° 0.2 mm 1 m/S 730 mmHg 85%
    18:00 +13°C° 0.2 mm 1 m/S 730 mmHg 97%
    19:00 +12°C° 0.1 mm 1 m/S 730 mmHg 98%
    20:00 +12°C° 0.1 mm 1 m/S 730 mmHg 98%
    21:00 +12°C° 0.1 mm 1 m/S 730 mmHg 98%
    22:00 +12°C° 0.1 mm 1 m/S 730 mmHg 98%
    23:00 +12°C° 0.1 mm 1 m/S 730 mmHg 98%

    Morgen, 22 April, Montag

    Zeit Temperatur Niederschläge Wind Luftdruck Luftfeuchtigkeit
    00:00 +12°C° 0.1 mm 1 m/S 730 mmHg 98%
    01:00 +13°C° 1.5 mm 1 m/S 730 mmHg 98%
    02:00 +13°C° 1.5 mm 1 m/S 730 mmHg 99%
    03:00 +13°C° 1.5 mm 1 m/S 730 mmHg 99%
    04:00 +13°C° 1.3 mm 1 m/S 730 mmHg 99%
    05:00 +12°C° 1.3 mm 0 m/S 730 mmHg 99%
    06:00 +12°C° 1.3 mm 0 m/S 729 mmHg 99%
    07:00 +12°C° 1.1 mm 0 m/S 730 mmHg 99%
    08:00 +12°C° 1.1 mm 0 m/S 730 mmHg 98%
    09:00 +13°C° 1.1 mm 0 m/S 730 mmHg 98%
    10:00 +13°C° 1.4 mm 0 m/S 730 mmHg 97%
    11:00 +13°C° 1.4 mm 0 m/S 730 mmHg 97%
    12:00 +14°C° 1.4 mm 1 m/S 730 mmHg 96%
    13:00 +13°C° 0.6 mm 0 m/S 729 mmHg 96%
    14:00 +13°C° 0.6 mm 0 m/S 729 mmHg 96%
    15:00 +13°C° 0.6 mm 0 m/S 728 mmHg 95%
    16:00 +13°C° 0.1 mm 0 m/S 728 mmHg 96%
    17:00 +12°C° 0.1 mm 0 m/S 728 mmHg 97%
    18:00 +11°C° 0.1 mm 0 m/S 728 mmHg 98%
    19:00 +11°C° 0 mm 0 m/S 728 mmHg 99%
    20:00 +10°C° 0 mm 0 m/S 729 mmHg 99%
    21:00 +10°C° 0 mm 0 m/S 729 mmHg 99%
    22:00 +10°C° 0.1 mm 0 m/S 729 mmHg 99%
    23:00 +10°C° 0.1 mm 0 m/S 729 mmHg 99%

    übermorgen, 23 April, Dienstag

    Zeit Temperatur Niederschläge Wind Luftdruck Luftfeuchtigkeit
    00:00 +10°C° 0.1 mm 0 m/S 729 mmHg 99%
    01:00 +10°C° 0.1 mm 0 m/S 729 mmHg 99%
    02:00 +10°C° 0.1 mm 0 m/S 728 mmHg 99%
    03:00 +10°C° 0.1 mm 0 m/S 728 mmHg 99%
    04:00 +10°C° 0.5 mm 0 m/S 728 mmHg 99%
    05:00 +10°C° 0.5 mm 0 m/S 728 mmHg 99%
    06:00 +10°C° 0.5 mm 0 m/S 728 mmHg 99%
    07:00 +11°C° 0.3 mm 0 m/S 728 mmHg 99%
    08:00 +11°C° 0.3 mm 0 m/S 728 mmHg 98%
    09:00 +11°C° 0.3 mm 0 m/S 729 mmHg 97%
    10:00 +12°C° 0.4 mm 0 m/S 729 mmHg 91%
    11:00 +14°C° 0.4 mm 0 m/S 728 mmHg 85%
    12:00 +15°C° 0.4 mm 0 m/S 728 mmHg 79%
    13:00 +15°C° 0.9 mm 0 m/S 728 mmHg 82%
    14:00 +15°C° 0.9 mm 0 m/S 727 mmHg 85%
    15:00 +15°C° 0.9 mm 0 m/S 727 mmHg 87%
    16:00 +13°C° 0.6 mm 0 m/S 727 mmHg 90%
    17:00 +12°C° 0.6 mm 0 m/S 727 mmHg 93%
    18:00 +10°C° 0.6 mm 0 m/S 727 mmHg 96%
    19:00 +10°C° 0.1 mm 0 m/S 727 mmHg 96%
    20:00 +9°C° 0.1 mm 0 m/S 727 mmHg 97%
    21:00 +8°C° 0.1 mm 0 m/S 728 mmHg 98%
    22:00 +9°C° 0 mm 1 m/S 728 mmHg 98%
    23:00 +9°C° 0 mm 1 m/S 728 mmHg 98%

    24 April, Mittwoch

    Zeit Temperatur Niederschläge Wind Luftdruck Luftfeuchtigkeit
    00:00 +8°C° 0 mm 1 m/S 727 mmHg 98%
    01:00 +8°C° 0 mm 1 m/S 727 mmHg 98%
    02:00 +8°C° 0 mm 1 m/S 727 mmHg 98%
    03:00 +8°C° 0 mm 1 m/S 727 mmHg 98%
    04:00 +8°C° 0 mm 1 m/S 727 mmHg 98%
    05:00 +8°C° 0 mm 1 m/S 727 mmHg 98%
    06:00 +8°C° 0 mm 1 m/S 726 mmHg 98%
    07:00 +9°C° 0 mm 1 m/S 727 mmHg 96%
    08:00 +10°C° 0 mm 1 m/S 727 mmHg 93%
    09:00 +12°C° 0 mm 1 m/S 728 mmHg 91%
    10:00 +14°C° 0 mm 1 m/S 728 mmHg 78%
    11:00 +18°C° 0 mm 1 m/S 728 mmHg 66%
    12:00 +20°C° 0 mm 1 m/S 728 mmHg 54%
    13:00 +20°C° 0 mm 1 m/S 727 mmHg 52%
    14:00 +21°C° 0 mm 1 m/S 727 mmHg 50%
    15:00 +21°C° 0 mm 1 m/S 726 mmHg 48%
    16:00 +19°C° 0 mm 1 m/S 726 mmHg 58%
    17:00 +16°C° 0 mm 1 m/S 726 mmHg 67%
    18:00 +14°C° 0 mm 1 m/S 726 mmHg 76%
    19:00 +13°C° 0 mm 1 m/S 726 mmHg 83%
    20:00 +12°C° 0 mm 1 m/S 726 mmHg 89%
    21:00 +11°C° 0 mm 1 m/S 726 mmHg 96%
    22:00 +11°C° 0 mm 1 m/S 726 mmHg 97%
    23:00 +11°C° 0 mm 1 m/S 726 mmHg 97%

    25 April, Donnerstag

    Zeit Temperatur Niederschläge Wind Luftdruck Luftfeuchtigkeit
    00:00 +10°C° 0 mm 1 m/S 726 mmHg 98%
    01:00 +10°C° 0 mm 1 m/S 726 mmHg 98%
    02:00 +10°C° 0 mm 1 m/S 726 mmHg 98%
    03:00 +10°C° 0 mm 1 m/S 725 mmHg 98%
    04:00 +10°C° 0 mm 1 m/S 725 mmHg 98%
    05:00 +9°C° 0 mm 1 m/S 725 mmHg 99%
    06:00 +9°C° 0 mm 1 m/S 725 mmHg 99%
    07:00 +11°C° 0 mm 1 m/S 726 mmHg 93%
    08:00 +12°C° 0 mm 1 m/S 726 mmHg 88%
    09:00 +13°C° 0 mm 1 m/S 727 mmHg 82%
    10:00 +16°C° 0 mm 1 m/S 726 mmHg 71%
    11:00 +19°C° 0 mm 1 m/S 726 mmHg 59%
    12:00 +22°C° 0 mm 1 m/S 726 mmHg 48%
    13:00 +22°C° 0 mm 1 m/S 726 mmHg 49%
    14:00 +21°C° 0 mm 2 m/S 725 mmHg 50%
    15:00 +21°C° 0 mm 2 m/S 725 mmHg 51%
    16:00 +20°C° 0 mm 2 m/S 725 mmHg 61%
    17:00 +19°C° 0 mm 1 m/S 725 mmHg 72%
    18:00 +16°C° 0 mm 1 m/S 725 mmHg 82%
    19:00 +15°C° 0 mm 1 m/S 725 mmHg 87%
    20:00 +14°C° 0 mm 1 m/S 725 mmHg 92%
    21:00 +14°C° 0 mm 1 m/S 725 mmHg 97%
    22:00 +14°C° 0 mm 1 m/S 725 mmHg 97%
    23:00 +14°C° 0 mm 1 m/S 724 mmHg 97%

    26 April, Freitag

    Zeit Temperatur Niederschläge Wind Luftdruck Luftfeuchtigkeit
    00:00 +14°C° 0 mm 2 m/S 724 mmHg 96%
    01:00 +14°C° 0 mm 2 m/S 724 mmHg 96%
    02:00 +14°C° 0 mm 2 m/S 724 mmHg 96%
    03:00 +15°C° 0 mm 2 m/S 724 mmHg 96%
    04:00 +14°C° 0 mm 2 m/S 724 mmHg 96%
    05:00 +14°C° 0 mm 2 m/S 724 mmHg 97%
    06:00 +14°C° 0 mm 1 m/S 723 mmHg 98%
    07:00 +14°C° 0.1 mm 2 m/S 724 mmHg 96%
    08:00 +15°C° 0.1 mm 2 m/S 724 mmHg 94%
    09:00 +15°C° 0.1 mm 2 m/S 724 mmHg 92%
    10:00 +17°C° 0 mm 3 m/S 724 mmHg 80%
    11:00 +18°C° 0 mm 3 m/S 724 mmHg 67%
    12:00 +19°C° 0 mm 3 m/S 724 mmHg 55%
    13:00 +19°C° 0 mm 3 m/S 724 mmHg 55%
    14:00 +19°C° 0 mm 3 m/S 724 mmHg 55%
    15:00 +19°C° 0 mm 3 m/S 724 mmHg 55%
    16:00 +18°C° 0 mm 3 m/S 724 mmHg 62%
    17:00 +16°C° 0 mm 2 m/S 724 mmHg 69%
    18:00 +14°C° 0 mm 2 m/S 724 mmHg 76%
    19:00 +13°C° 0 mm 1 m/S 724 mmHg 82%
    20:00 +12°C° 0 mm 1 m/S 724 mmHg 89%
    21:00 +11°C° 0 mm 1 m/S 725 mmHg 96%
    22:00 +11°C° 0 mm 1 m/S 725 mmHg 97%
    23:00 +11°C° 0 mm 1 m/S 725 mmHg 98%
    Mehr zeigen